OneWeb SL0260

operational
NORAD ID: 48978 Int'l Des: 2021-060 Owner: ONEWEBN Country: UK Constellation: oneweb
LEOCIRCULARPOLARONEWEB_TYPE

About OneWeb SL0260

Description loading...

Live Position

Loading 3D Globe...

Upcoming Passes

Altitude History

Altitude vs Time

uPlot chart will show altitude changes over time

Two-Line Element Set

1 48978U 21060M 25258.58828343 .00000068 00000-0 14551-3 0 9991
2 48978 87.8972 283.5306 0001973 77.5021 282.6331 13.16594722203479
Epoch: Sep 15, 2025 • Age: 17 hours

Current Status

Altitude 1203.9 km
Velocity 7.26 km/s
Sub-Earth Point 47.79°N, 171.41°W
Launch Date Jul 1, 2021
Age 4.2 years
Type internet

Technical Details

Classification Payload
Mass 148.00 kg
Dry Mass 140.00 kg
Total Mass 148.00 kg
Length 1.30 m
Diameter 1.00 m
Span 5.00 m
Shape Trapezoid+2 pan
Manufacturer ONEWUS
Bus Type ARROW
Phase Status In Orbit
Owner/State ONEWEBN/UK

Large Constellations

Loading constellations...